Location: G�kdere
(37.0328°N, 30.9000°E)
Time: 02:56:57
(UTC+00:00)

Cosmos 2322 - Pass Details

Date: 03 March 2021
Orbit: 842 x 853 km, 71.0° (Epoch: 22 April)

Event Time Altitude Azimuth Distance (km) Brightness Sun altitude
Rises 17:59:17 0° 214° (SW) 3,406 7.1 -26.0°
Reaches altitude 10° 18:01:48 10° 219° (SW) 2,474 6.4 -26.5°
Maximum altitude 18:07:20 52° 295° (WNW) 1,050 4.4 -27.5°
Drops below altitude 10° 18:12:54 10° 12° (NNE) 2,486 6.1 -28.6°
Sets 18:15:26 0° 17° (NNE) 3,425 6.8 -29.1°
